User: anonymous   Login
Location: Melbourne
(37.8170°S, 144.9670°E)
Time: 03:21:45
(UTC+10:00)
Language:

CZ-3 R/B - Orbit

View from above orbital plane
View from above orbital plane
View from above satellite
View from above satellite

Ground track
Ground track

The orbit data is extracted from the following two-line orbital elements,

1 29517U 06048B   16177.85454015  .00045196  00000-0  93994-3 0  9998
2 29517  28.4673 356.1870 4492353  59.3008 337.4340  6.63126850143527
Epoch (UTC): 25 June 2016 20:30:32
Eccentricity: 0.4492353
inclination: 28.4673°
perigee height: 213 km
apogee height: 10965 km
right ascension of ascending node: 356.1870°
argument of perigee: 59.3008°
revolutions per day: 6.63126850
mean anomaly at epoch: 337.4340°
orbit number at epoch: 14352

The dashed part of the orbit path shows where the satellite is in the earth's shadow,  

DLR